sat.trackr.live / text

‹ back to catalog

STARLINK-30846

NORAD 58210 · 2023-170E

PAYLOAD ACTIVE UNKNOWN

§ Identity

Operator
Country
US
Launch date
2023-11-03
Launch site
AFETR
Launch vehicle
Mass (kg)
RCS (m²)

Purposes: comms

External: N2YO · Heavens-Above · Gunter

§ Orbital elements

Epoch: 2026-09-20T11:22:51.100320Z

Period
94.27 min
Inclination
43.0035°
Eccentricity
0.0001033
Mean motion
15.27576885 rev/d
Perigee alt
482.3 km
Apogee alt
483.8 km
Semi-major
6,861.2 km
B*
1.1895e-5
RAAN
174.6654°
Arg perigee
271.0454°
Mean anomaly
89.0279°
Rev number
16,008

§ Raw data

STARLINK-308461 58210U 23170E   26263.47420255  .00000065  00000+0  11895-4 0  99952 58210  43.0035 174.6654 0001033 271.0454  89.0279 15.27576885160080

JSON: /api/v1/satellites/58210 · /tle

For live sub-satellite position, see the globe view (requires WebGL).

§ Visibility from observer

Set your observer location to see the next 7 days of passes ≥ 10°. The values pass through the URL so the page stays shareable.

No JS? Fill the form by hand. The geolocation button needs JavaScript.